[[{"header":{"parameterUnit":"m.s-1","parameterCategory":1,"la1":30.2991,"la2":30.254,"lo1":-89.0895,"lo2":-89.0444,"dy":0.0017,"dx":0.0017,"nx":28,"ny":28,"refTime":"2024-06-18T09:00:00:Z","depth":0,"parameterNumber":2,"parameterNumberName":"U-component_of_WINDS"},"data":[0,0,0,0,0,0,0,0,0,0,0,0,0,0,0,0,0,0,0,0,0,0,0,0,0,0,0,0,0,0,0,0,0,0,0,0,0,0,0,0,0,0,0,0,0,0,0,0,0,0,0,0,0,0,0,0,0,0,-8.7006,-8.7007,0,-8.7024,-8.7024,-8.7024,-8.6819,-8.6813,-8.6808,-8.6803,-8.6825,-8.6831,-8.6836,0,0,0,0,0,0,0,0,0,0,0,0,0,-8.6799,-8.6804,-8.7006,-8.7007,-8.7007,-8.7024,-8.7024,-8.7024,-8.682,-8.6813,-8.6806,-8.68,-8.6823,-8.683,-8.6837,0,0,0,0,0,0,0,0,0,0,0,0,0,-8.686,-8.6806,-8.7006,-8.6907,-8.6898,-8.7024,-8.7024,-8.7024,-8.6822,-8.6813,-8.6805,-8.6797,-8.6821,-8.6829,-8.6838,-8.7061,0,0,-8.6865,-8.6869,0,0,0,0,0,0,0,0,-8.6857,-8.6868,-8.6921,-8.6914,-8.6904,-8.691,-8.6959,-8.7037,-8.6824,-8.6851,-8.6802,-8.6793,-8.6861,-8.6866,-8.6887,-8.7062,-8.7063,-8.6866,-8.6871,-8.6875,-8.6877,0,0,0,0,0,0,0,-8.6853,-8.6866,-8.7013,-8.6922,-8.6912,-8.6862,-8.6862,-8.6973,-8.6903,-8.6848,-8.6833,-8.6838,-8.6854,-8.688,-8.6887,-8.7063,-8.6865,-8.6873,-8.6878,-8.6882,-8.742,-8.7429,0,0,0,0,0,0,-8.6862,-8.6864,-8.7013,-8.7014,-8.6859,-8.6873,-8.6872,-8.6917,-8.6901,-8.6891,-8.6845,-8.6828,-8.6869,-8.6877,-8.6887,-8.7146,-8.6875,-8.6883,-8.6888,-8.7411,-8.7422,-8.7432,0,0,0,0,0,0,-8.6858,-8.6877,-8.7012,-8.6935,-8.6948,-8.6885,-8.6938,-8.6922,-8.6947,-8.6899,-8.6886,-8.6883,-8.6862,-8.6874,-8.7018,-8.7144,-8.6887,-8.6895,-8.7401,-8.7415,-8.7427,-8.7667,0,0,0,0,0,0,-8.6853,-8.6877,-8.6961,-8.6938,-8.6953,-8.7144,-8.6945,-8.6928,-8.6962,-8.694,-8.6931,-8.6922,-8.6857,-8.7006,-8.7027,-8.7151,-8.6901,-8.7389,-8.7407,-8.7423,-8.7647,-8.7687,-8.7721,0,0,0,0,0,-8.6847,-8.7029,-8.6966,-8.6985,-8.7056,-8.7151,-8.716,-8.708,-8.6973,-8.7057,-8.7025,-8.6922,-8.7127,-8.7023,-8.7045,-8.7173,-8.7381,-8.7402,-8.7422,-8.7631,-8.7679,-8.772,0,0,0,0,0,0,-8.7069,-8.7024,-8.6954,-8.7134,-8.7148,-8.7116,-8.722,-8.7133,-8.7179,-8.7157,-8.7057,-8.7057,-8.7218,-8.7209,-8.7095,-8.7387,-8.7235,-8.7261,-8.7387,-8.7432,-8.7468,-8.7467,-8.6909,0,0,0,0,0,-8.7139,-8.7219,-8.7175,-8.7339,-8.7349,-8.7284,-8.7322,-8.7259,-8.727,-8.7275,-8.7254,-8.727,-8.7337,-8.7384,-8.7444,-8.7645,-8.764,-8.7744,-8.778,-8.7811,-8.7834,-8.794,-8.7985,-8.7499,-8.7499,-8.7498,0,0,-8.7285,-8.727,-8.7327,-8.7383,-8.7386,-8.7472,-8.729,-8.7389,-8.7451,-8.729,-8.7425,-8.7411,-8.7421,-8.7595,-8.7671,-8.7593,-8.7967,-8.7837,-8.7861,-8.7868,-8.7965,-8.8011,-8.8052,-8.7513,-8.751,-8.7508,0,0,-8.7594,-8.7591,-8.7725,-8.7732,-8.7738,-8.7693,-8.7726,-8.7708,-8.7691,-8.7824,-8.7705,-8.7779,-8.7897,-8.7909,-8.7931,-8.8244,-8.815,-8.8266,-8.8457,-8.8561,-8.8599,-8.8633,-8.8744,-8.8785,-8.8289,-8.829,-8.829,0,-8.7774,-8.7897,-8.7806,-8.7912,-8.7941,-8.7797,-8.7933,-8.7944,-8.7971,-8.7994,-8.7906,-8.8051,-8.8048,-8.8222,-8.8299,-8.8321,-8.8356,-8.8267,-8.8601,-8.8634,-8.8664,-8.8769,-8.8811,-8.8304,-8.8302,-8.8301,-8.83,0,-8.8119,-8.8206,-8.8315,-8.8342,-8.8382,-8.8504,-8.8431,-8.8483,-8.8416,-8.8381,-8.8518,-8.851,-8.8564,-8.8601,-8.8538,-8.8767,-8.8718,-8.8618,-8.8463,-8.8725,-8.8822,-8.8862,-8.8324,-8.8319,-8.8315,-8.8311,0,0,-8.857,-8.8544,-8.8585,-8.8595,-8.8591,-8.8657,-8.8772,-8.8823,-8.887,-8.8893,-8.8987,-8.9089,-8.8996,-8.9021,-8.8957,-8.9049,-8.9296,-8.8936,-8.8935,-8.9004,-8.9548,-8.9624,-8.9672,-8.9234,-8.9241,-8.9247,-8.9547,0,-8.887,-8.9063,-8.8983,-8.9184,-8.9263,-8.9127,-8.9226,-8.9235,-8.9205,-8.9269,-8.9236,-8.931,-8.9181,-8.9195,-8.9279,-8.9249,-8.9404,-8.9226,-8.9321,-8.9326,-8.9323,-8.9722,-8.9803,-9.0086,-8.9584,-8.959,-8.9595,0,-8.9247,-8.9283,-8.9491,-8.9471,-8.9502,-8.9593,-8.9633,-8.9695,-8.9703,-8.9674,-8.9702,-8.9618,-8.9729,-8.9575,-8.9727,-8.9608,-8.9642,-8.9633,-8.9642,-8.9648,-8.9477,-8.974,-9.0174,-9.0217,-8.9654,-8.9649,-8.9645,0,-8.9555,-8.9656,-8.9793,-8.9806,-8.9787,-8.9853,-8.9849,-8.9847,-8.9883,-8.9919,-8.9941,-8.9991,-9.0018,-9.0059,-8.9991,-8.9884,-9.0153,-8.9993,-9.0133,-9.0136,-9.0197,-9.0194,-9.0644,-9.0219,-9.0219,-9.0218,-9.0217,0,-8.9899,-9.0032,-8.993,-9.0015,-9.0159,-9.0067,-9.0213,-9.0193,-9.0193,-9.0272,-9.0157,-9.0234,-9.0139,-9.0207,-9.0155,-9.0289,-9.0303,-9.0283,-9.0268,-9.0294,-9.0297,-9.0315,-9.0294,-9.0229,-9.0227,-9.0224,-9.0223,0,-9.0268,-9.0206,-9.0346,-9.0315,-9.0311,-9.0419,-9.0393,-9.047,-9.0431,-9.0532,-9.0551,-9.0491,-9.0564,-9.05,-9.0572,-9.0536,-9.0715,-9.0672,-9.0713,-9.07,-9.0845,-9.0832,-9.1323,-9.1382,-9.092,-9.0924,-9.0928,0,-9.0492,-9.059,-9.0569,-9.0613,-9.0615,-9.0687,-9.0722,-9.0635,-9.0677,-9.0691,-9.0767,-9.0831,-9.0877,-9.1002,-9.0965,-9.102,-9.0977,-9.1145,-9.0984,-9.1007,-9.0979,-9.0974,-9.0983,-9.1178,-9.1183,-9.1188,-9.1191,0,-9.0896,-9.0859,-9.0913,-9.0958,-9.1002,-9.1033,-9.1055,-9.1098,-9.1008,-9.1061,-9.1134,-9.117,-9.1241,-9.1306,-9.1349,-9.1344,-9.1255,-9.1242,-9.1277,-9.1305,-9.1324,-9.1315,-9.0802,-9.1231,-9.1227,-9.1224,-9.1222,-9.122,-9.1198,-9.1279,-9.1277,-9.1341,-9.1348,-9.1371,-9.1441,-9.141,-9.1469,-9.1519,-9.1464,-9.1553,-9.1557,-9.1604,-9.1611,-9.168,-9.161,-9.1662,-9.1674,-9.1689,-9.1709,-9.1313,-9.1688,-9.1686,-9.1685,-9.1684,-9.1683,0,-9.1596,-9.1587,-9.1647,-9.168,-9.1731,-9.1639,-9.1658,-9.1707,-9.1786,-9.1796,-9.1843,-9.1927,-9.1989,-9.1957,-9.2011,-9.2073,-9.2033,-9.209,-9.2085,-9.2085,-9.1769,-9.1733,-9.2121,-9.2121,-9.2121,-9.2121,-9.2121,-9.2121,-9.1809,-9.194,-9.1904,-9.2037,-9.2027,-9.2112,-9.2131,-9.2151,-9.2159,-9.2257,-9.2307,-9.2285,-9.2278,-9.233,-9.2384,-9.2372,-9.2398,-9.2471,-9.2445,-9.2151,-9.2108,-9.2067,-9.2032,-9.2477,-9.2477,-9.2755,-9.2758,-9.276]},{"header":{"parameterUnit":"m.s-1","parameterCategory":1,"la1":30.2991,"la2":30.254,"lo1":-89.0895,"lo2":-89.0444,"dy":0.0017,"dx":0.0017,"nx":28,"ny":28,"refTime":"2024-06-18T09:00:00:Z","depth":0,"parameterNumber":3,"parameterNumberName":"V-component_of_WINDS"},"data":[0,0,0,0,0,0,0,0,0,0,0,0,0,0,0,0,0,0,0,0,0,0,0,0,0,0,0,0,0,0,0,0,0,0,0,0,0,0,0,0,0,0,0,0,0,0,0,0,0,0,0,0,0,0,0,0,0,0,0.3004,0.3004,0,0.306,0.306,0.3061,0.3039,0.3038,0.3036,0.3035,0.3096,0.3099,0.3102,0,0,0,0,0,0,0,0,0,0,0,0,0,0.2884,0.2886,0.3004,0.3004,0.3005,0.306,0.306,0.3061,0.3039,0.3038,0.3036,0.3035,0.3095,0.3099,0.3102,0,0,0,0,0,0,0,0,0,0,0,0,0,0.2938,0.2887,0.3004,0.3001,0.3001,0.3059,0.306,0.3061,0.304,0.3038,0.3036,0.3034,0.3094,0.3098,0.3103,0.3168,0,0,0.3116,0.3117,0,0,0,0,0,0,0,0,0.2935,0.2942,0.3,0.3001,0.3001,0.304,0.3041,0.3097,0.304,0.3025,0.3035,0.3033,0.308,0.3085,0.31,0.3171,0.3174,0.3116,0.3119,0.312,0.3122,0,0,0,0,0,0,0,0.2931,0.294,0.3026,0.3001,0.3002,0.2999,0.3004,0.3051,0.3063,0.3026,0.3025,0.3032,0.3079,0.3096,0.3101,0.3175,0.3116,0.312,0.3122,0.3124,0.3308,0.331,0,0,0,0,0,0,0.2927,0.2937,0.3024,0.3028,0.2962,0.3002,0.3008,0.303,0.3062,0.3065,0.3033,0.303,0.3089,0.3096,0.3103,0.3185,0.312,0.3124,0.3127,0.3305,0.3308,0.3311,0,0,0,0,0,0,0.2924,0.2934,0.3022,0.2982,0.2993,0.3007,0.3031,0.3032,0.3048,0.3067,0.307,0.3047,0.3088,0.3097,0.3153,0.3187,0.3126,0.313,0.3303,0.3306,0.3309,0.3348,0,0,0,0,0,0,0.2921,0.2934,0.2957,0.2982,0.2995,0.3069,0.3033,0.3035,0.3055,0.3052,0.3081,0.3084,0.3087,0.3147,0.3157,0.3192,0.3134,0.33,0.3304,0.3308,0.3344,0.3353,0.336,0,0,0,0,0,0.2916,0.2966,0.2958,0.2969,0.3024,0.3071,0.3078,0.308,0.3058,0.3083,0.3096,0.3083,0.3181,0.3153,0.3164,0.3201,0.3298,0.3303,0.3308,0.334,0.3351,0.336,0,0,0,0,0,0,0.2945,0.2969,0.2961,0.3019,0.3043,0.3067,0.3098,0.309,0.3121,0.3117,0.3119,0.3126,0.3184,0.3198,0.3165,0.3268,0.3236,0.3244,0.3257,0.3267,0.3275,0.3271,0.3137,0,0,0,0,0,0.2957,0.2992,0.3012,0.3062,0.3074,0.3084,0.3105,0.3104,0.3129,0.3139,0.3156,0.3183,0.322,0.3244,0.3279,0.3346,0.3354,0.3377,0.3385,0.3391,0.3398,0.3439,0.345,0.3328,0.3328,0.3328,0,0,0.2985,0.3002,0.3024,0.3068,0.3086,0.3124,0.3093,0.3133,0.3163,0.3146,0.32,0.3214,0.3244,0.3306,0.3335,0.3319,0.3434,0.3398,0.3403,0.3407,0.3445,0.3457,0.3467,0.3331,0.3331,0.333,0,0,0.3054,0.3069,0.3114,0.3134,0.3162,0.3169,0.318,0.3206,0.3214,0.3268,0.3258,0.3294,0.3356,0.3379,0.3399,0.3481,0.3472,0.3492,0.3534,0.3574,0.3583,0.3592,0.3624,0.3635,0.3499,0.3499,0.3499,0,0.3085,0.314,0.3139,0.3181,0.3203,0.3189,0.3236,0.3256,0.3294,0.3311,0.3292,0.3374,0.3392,0.3462,0.3482,0.3498,0.3513,0.3489,0.3582,0.359,0.3598,0.3629,0.3641,0.3501,0.3501,0.3501,0.3501,0,0.3178,0.3216,0.325,0.3287,0.3312,0.3357,0.3365,0.3391,0.3389,0.3399,0.3457,0.3479,0.352,0.3536,0.3534,0.3607,0.3597,0.358,0.3549,0.3613,0.3642,0.3653,0.3505,0.3504,0.3503,0.3503,0,0,0.3266,0.3304,0.3316,0.3335,0.3366,0.3397,0.3443,0.3482,0.3506,0.3534,0.3575,0.3629,0.3615,0.3638,0.3639,0.3673,0.3741,0.3653,0.3653,0.3671,0.3827,0.3841,0.3854,0.3734,0.3737,0.3738,0.3825,0,0.334,0.3418,0.342,0.3493,0.3531,0.352,0.3561,0.3586,0.3597,0.3633,0.3646,0.3686,0.3662,0.3676,0.371,0.3725,0.3773,0.3719,0.3775,0.3777,0.377,0.3869,0.3883,0.3964,0.3836,0.3838,0.384,0,0.3436,0.3467,0.3544,0.3573,0.3589,0.3625,0.3663,0.3696,0.3726,0.3732,0.3759,0.3756,0.3806,0.3772,0.3843,0.3806,0.383,0.3842,0.3845,0.3852,0.3813,0.3881,0.3989,0.4002,0.3857,0.3856,0.3854,0,0.3496,0.3557,0.3612,0.3628,0.3662,0.3688,0.3705,0.3732,0.3757,0.3791,0.3808,0.3848,0.387,0.3902,0.3911,0.3885,0.3983,0.3949,0.3992,0.3993,0.4015,0.4013,0.4131,0.4026,0.4026,0.4026,0.4025,0,0.3579,0.3627,0.364,0.3673,0.3728,0.3732,0.3787,0.3801,0.3827,0.3865,0.3858,0.3895,0.3904,0.3943,0.3951,0.4011,0.402,0.4029,0.403,0.403,0.403,0.4047,0.4043,0.4029,0.4028,0.4027,0.4027,0,0.3656,0.3665,0.3725,0.3753,0.3762,0.3802,0.3827,0.3861,0.3872,0.3922,0.3934,0.3952,0.3999,0.401,0.4066,0.4071,0.4143,0.4138,0.4132,0.4133,0.4177,0.4173,0.4311,0.433,0.4211,0.4212,0.4213,0,0.3709,0.3746,0.3779,0.3804,0.3821,0.3861,0.3887,0.3893,0.392,0.3959,0.399,0.4035,0.4072,0.4148,0.4167,0.4211,0.4209,0.4254,0.4215,0.4216,0.4213,0.4212,0.4217,0.4262,0.4263,0.4264,0.4265,0,0.3804,0.3808,0.3844,0.3884,0.3914,0.3946,0.3976,0.3997,0.4008,0.404,0.4087,0.4116,0.4173,0.422,0.4264,0.4283,0.4278,0.4277,0.429,0.4291,0.4288,0.4293,0.4155,0.4274,0.4273,0.4272,0.4272,0.4272,0.3873,0.3906,0.3936,0.3978,0.4001,0.403,0.4065,0.4081,0.412,0.4166,0.4168,0.4221,0.4253,0.4312,0.4334,0.4377,0.4364,0.4382,0.4387,0.4392,0.4397,0.4279,0.4385,0.4385,0.4385,0.4385,0.4384,0,0.397,0.3989,0.4027,0.407,0.4104,0.4094,0.4128,0.4157,0.4203,0.4234,0.4271,0.4327,0.4373,0.4398,0.4444,0.4474,0.4473,0.4487,0.4486,0.4491,0.4405,0.439,0.4487,0.4487,0.4487,0.4487,0.4487,0.4487,0.4024,0.4082,0.409,0.416,0.4179,0.423,0.4251,0.4279,0.4304,0.4367,0.4405,0.442,0.4449,0.4499,0.4542,0.4548,0.4567,0.4583,0.4588,0.4507,0.4497,0.4487,0.4473,0.4586,0.4586,0.4671,0.4671,0.4672]}]]